FOX-1CLIFF (AO-95)

Last updated on Tue Jan 14 2025 00:03:00 GMT+0000 (Coordinated Universal Time)

1 43770U 18099N 25013.11400889 .00012307 00000+0 70361-3 0 9992 2 43770 97.5169 73.0982 0012004 9.5231 350.6225 15.12765015334226
UTC large
Height (km)
Speed (km/s)
/
Latitude / Longitude
Inclination (degrees)
Orbital Period (minutes)
Azimuth
Elevation
Range (km)
Doppler Factor

Next 0 passes for location: London (51.5072 / 0.1276)

Sorry there are no passes over London.